Location: Unspecified
(0.0000°N, 0.0000°E)
Time: 12:15:49
(UTC+00:00)

Courier 1B Rocket - Pass Details

Date: 14 December 2018
Orbit: 920 x 1202 km, 28.2° (Epoch: 15 July)

Event Time Altitude Azimuth Distance (km) Brightness Sun altitude
Rises 18:40:08 0° 285° (WNW) 4,091 9.2 -10.4°
Reaches altitude 10° 18:43:11 10° 278° (W) 3,125 8.6 -11.1°
Maximum altitude 18:50:28 42° 209° (SSW) 1,612 6.6 -12.8°
Drops below altitude 10° 18:57:30 10° 140° (SE) 3,017 7.4 -14.4°
Sets 19:00:24 0° 133° (SE) 3,938 7.9 -15.0°
